Historique des stations

Station météo de Culan

Altitude de la station : 276 m







Données météorologiques pour le 28/11/2021
Date
Heure
Températures Humidité Point de rosée Vitesse
du vent
Direction Rafales Windchill Pression Pluviométrie
Cumul
Date
Heure
Températures Humidité Point de rosée Vitesse
du vent
Direction Rafales Windchill Pression Pluviométrie
Cumul
28/11/2021 21:010.6 °C92 %-0.6 °C---0.6 1005 hPa8.8 mm
28/11/2021 20:590.6 °C92 %-0.6 °C-O27 km/h0.6 1006 hPa8.8 mm
28/11/2021 20:460.8 °C91 %-0.6 °C-ONO2 km/h1.1 1005 hPa8.8 mm
28/11/2021 20:440.8 °C91 %-0.6 °C-ONO27 km/h1.1 1005 hPa8.8 mm
28/11/2021 20:310.9 °C92 %0.0 °C-ONO2 km/h1.1 1005 hPa8.8 mm
28/11/2021 20:290.9 °C91 %-0.6 °C-NO27 km/h1.1 1005 hPa8.8 mm
28/11/2021 20:161.1 °C91 %0.0 °C-ONO18 km/h1.1 1005 hPa8.8 mm
28/11/2021 20:141.1 °C91 %0.0 °C-NO27 km/h1.1 1005 hPa8.8 mm
28/11/2021 20:011.3 °C91 %0.0 °C-NO3 km/h1.1 1005 hPa8.8 mm
28/11/2021 19:591.3 °C91 %0.0 °C-NO27 km/h1.1 1005 hPa8.8 mm
28/11/2021 19:461.5 °C91 %0.0 °C-NO11 km/h1.7 1005 hPa8.8 mm
28/11/2021 19:441.5 °C91 %0.0 °C-NO27 km/h1.7 1005 hPa8.8 mm
28/11/2021 19:311.7 °C92 %0.6 °C-ONO11 km/h1.7 1005 hPa8.8 mm
28/11/2021 19:291.7 °C92 %0.6 °C-ONO27 km/h1.7 1005 hPa8.8 mm
28/11/2021 19:161.8 °C92 %0.6 °C2 km/hNO11 km/h1.1 1005 hPa8.8 mm
28/11/2021 19:151.9 °C92 %0.6 °C-ONO27 km/h1.7 1005 hPa8.8 mm
28/11/2021 19:011.8 °C93 %1.1 °C-NO19 km/h1.7 1005 hPa8.8 mm
28/11/2021 19:001.8 °C93 %1.1 °C-ONO27 km/h1.7 1005 hPa8.8 mm
28/11/2021 18:461.8 °C93 %0.6 °C-ONO3 km/h1.7 1005 hPa8.8 mm
28/11/2021 18:451.8 °C93 %1.1 °C-ONO27 km/h1.7 1005 hPa8.8 mm
28/11/2021 18:311.8 °C93 %0.6 °C-NO3 km/h1.7 1005 hPa8.8 mm
28/11/2021 18:301.8 °C93 %0.6 °C-ONO27 km/h1.7 1005 hPa8.8 mm
28/11/2021 18:161.8 °C93 %0.6 °C-ONO3 km/h1.7 1004 hPa8.8 mm
28/11/2021 18:151.8 °C93 %0.6 °C-ONO27 km/h1.7 1004 hPa8.8 mm
28/11/2021 18:011.8 °C93 %0.6 °C-ONO8 km/h1.7 1004 hPa8.8 mm
28/11/2021 18:001.7 °C93 %0.6 °C-O27 km/h1.7 1004 hPa8.8 mm
28/11/2021 17:461.9 °C93 %1.1 °C-ONO8 km/h2.2 1004 hPa8.8 mm
28/11/2021 17:452.0 °C93 %1.1 °C-ONO27 km/h2.2 1004 hPa8.8 mm
28/11/2021 17:312.2 °C93 %1.1 °C-ONO10 km/h2.2 1004 hPa8.8 mm
28/11/2021 17:302.2 °C93 %1.1 °C-ONO27 km/h2.2 1004 hPa8.8 mm
28/11/2021 17:162.4 °C94 %1.7 °C-ONO10 km/h2.2 1004 hPa8.8 mm
28/11/2021 17:152.4 °C94 %1.7 °C-ONO27 km/h2.2 1004 hPa8.8 mm
28/11/2021 17:012.4 °C94 %1.7 °C-ONO14 km/h2.2 1004 hPa8.8 mm
28/11/2021 17:002.4 °C94 %1.7 °C-ONO27 km/h2.2 1004 hPa8.8 mm
28/11/2021 16:462.4 °C95 %1.7 °C-ONO11 km/h2.2 1004 hPa8.8 mm
28/11/2021 16:452.4 °C95 %1.7 °C-NO27 km/h2.2 1004 hPa8.8 mm
28/11/2021 16:312.3 °C95 %1.7 °C-ONO6 km/h2.2 1003 hPa8.8 mm
28/11/2021 16:302.3 °C95 %1.7 °C-ONO27 km/h2.2 1004 hPa8.8 mm
28/11/2021 16:162.3 °C94 %1.7 °C-NO8 km/h2.2 1003 hPa8.8 mm
28/11/2021 16:152.3 °C95 %1.7 °C3 km/hO27 km/h1.1 1003 hPa8.8 mm
28/11/2021 16:012.5 °C95 %1.7 °C-NO16 km/h2.8 1003 hPa8.8 mm
28/11/2021 16:002.5 °C95 %1.7 °C-O27 km/h2.8 1003 hPa8.8 mm
28/11/2021 15:472.4 °C95 %1.7 °C-NO13 km/h2.2 1003 hPa8.8 mm
28/11/2021 15:452.4 °C95 %1.7 °C-NO27 km/h2.2 1003 hPa8.8 mm
28/11/2021 15:322.5 °C94 %1.7 °C-NO11 km/h2.8 1003 hPa8.8 mm
28/11/2021 15:302.5 °C95 %1.7 °C-NO27 km/h2.8 1003 hPa8.6 mm
28/11/2021 15:172.6 °C95 %1.7 °C-ONO11 km/h2.8 1003 hPa8.6 mm
28/11/2021 15:152.6 °C95 %1.7 °C-ONO27 km/h2.8 1003 hPa8.6 mm
28/11/2021 15:022.6 °C95 %1.7 °C2 km/hNO3 km/h2.2 1003 hPa8.6 mm
28/11/2021 15:002.6 °C95 %1.7 °C-ONO27 km/h2.8 1003 hPa8.4 mm
28/11/2021 14:472.5 °C95 %1.7 °C-O27 km/h2.8 1003 hPa8.4 mm
28/11/2021 14:452.5 °C95 %1.7 °C-O26 km/h2.8 1003 hPa8.4 mm
28/11/2021 14:322.4 °C95 %1.7 °C-ONO18 km/h2.2 1003 hPa8.4 mm
28/11/2021 14:302.4 °C95 %1.7 °C-NO26 km/h2.2 1003 hPa8.4 mm
28/11/2021 14:172.4 °C96 %1.7 °C-ONO11 km/h2.2 1003 hPa8.4 mm
28/11/2021 14:152.4 °C96 %1.7 °C3 km/hONO26 km/h1.1 1003 hPa8.4 mm
28/11/2021 14:022.4 °C96 %1.7 °C2 km/hONO16 km/h1.7 1003 hPa8.4 mm
28/11/2021 14:002.4 °C96 %1.7 °C-NO26 km/h2.2 1003 hPa8.4 mm
28/11/2021 13:472.2 °C96 %1.7 °C-ONO16 km/h2.2 1003 hPa8.4 mm
28/11/2021 13:452.2 °C96 %1.7 °C-O26 km/h2.2 1003 hPa8.4 mm
28/11/2021 13:312.2 °C96 %1.7 °C13 km/hNO18 km/h-1.1 1003 hPa8.4 mm
28/11/2021 13:292.2 °C96 %1.7 °C-ONO26 km/h2.2 1003 hPa8.4 mm
28/11/2021 13:162.1 °C96 %1.7 °C-ONO16 km/h2.2 1003 hPa8.4 mm
28/11/2021 13:142.1 °C96 %1.7 °C-NO26 km/h2.2 1003 hPa8.4 mm
28/11/2021 13:011.9 °C96 %1.7 °C-ONO23 km/h2.2 1003 hPa8.4 mm
28/11/2021 12:591.9 °C96 %1.7 °C-ONO26 km/h2.2 1003 hPa8.4 mm
28/11/2021 12:461.9 °C96 %1.1 °C-ONO23 km/h1.7 1003 hPa8.4 mm
28/11/2021 12:441.9 °C96 %1.1 °C6 km/hNO26 km/h0.0 1003 hPa8.4 mm
28/11/2021 12:311.8 °C96 %1.1 °C-NO19 km/h1.7 1003 hPa8.4 mm
28/11/2021 12:291.9 °C96 %1.1 °C-ONO26 km/h1.7 1003 hPa8.4 mm
28/11/2021 12:161.9 °C96 %1.1 °C-ONO19 km/h1.7 1003 hPa8.2 mm
28/11/2021 12:141.9 °C97 %1.7 °C-O26 km/h2.2 1003 hPa8.2 mm
28/11/2021 12:011.8 °C96 %1.1 °C-ONO18 km/h1.7 1003 hPa8.2 mm
28/11/2021 11:591.8 °C96 %1.1 °C-ONO26 km/h1.7 1003 hPa8.2 mm
28/11/2021 11:461.7 °C96 %1.1 °C-ONO11 km/h1.7 1003 hPa8.2 mm
28/11/2021 11:441.7 °C96 %1.1 °C-ONO26 km/h1.7 1003 hPa8.2 mm
28/11/2021 11:311.7 °C96 %1.1 °C-ONO8 km/h1.7 1003 hPa8 mm
28/11/2021 11:281.8 °C96 %1.1 °C-ONO26 km/h1.7 1003 hPa8 mm
28/11/2021 11:161.8 °C96 %1.1 °C-ONO8 km/h1.7 1003 hPa8 mm
28/11/2021 11:141.8 °C96 %1.1 °C6 km/hNO26 km/h0.0 1003 hPa7.8 mm
28/11/2021 11:011.7 °C97 %1.1 °C-ONO3 km/h1.7 1003 hPa7.8 mm
28/11/2021 10:591.6 °C97 %1.1 °C-NO26 km/h1.7 1003 hPa7.8 mm
28/11/2021 10:461.6 °C96 %1.1 °C-ONO10 km/h1.7 1003 hPa7.6 mm
28/11/2021 10:441.6 °C96 %1.1 °C-NO26 km/h1.7 1003 hPa7.6 mm
28/11/2021 10:311.6 °C97 %1.1 °C-ONO8 km/h1.7 1003 hPa7.6 mm
28/11/2021 10:291.6 °C97 %1.1 °C-ONO26 km/h1.7 1003 hPa7.6 mm
28/11/2021 10:161.4 °C97 %1.1 °C-NO16 km/h1.7 1003 hPa7.6 mm
28/11/2021 10:141.4 °C97 %1.1 °C-ONO26 km/h1.7 1003 hPa7.6 mm
28/11/2021 10:011.2 °C97 %0.6 °C-ONO8 km/h1.1 1003 hPa7.6 mm
28/11/2021 09:591.1 °C97 %0.6 °C-ONO26 km/h1.1 1002 hPa7.6 mm
28/11/2021 09:460.9 °C96 %0.6 °C-ONO10 km/h1.1 1002 hPa7.4 mm
28/11/2021 09:440.9 °C96 %0.6 °C-O26 km/h1.1 1003 hPa7.4 mm
28/11/2021 09:310.8 °C96 %0.6 °C-O10 km/h1.1 1002 hPa7.2 mm
28/11/2021 09:290.8 °C96 %0.0 °C-ONO26 km/h0.6 1002 hPa7.2 mm
28/11/2021 09:160.7 °C96 %0.0 °C-ONO11 km/h0.6 1002 hPa7.2 mm
28/11/2021 09:140.7 °C96 %0.0 °C-O26 km/h0.6 1002 hPa7 mm
28/11/2021 09:010.6 °C96 %0.0 °C-OSO16 km/h0.6 1002 hPa6.8 mm
28/11/2021 08:590.6 °C96 %0.0 °C-ONO26 km/h0.6 1002 hPa6.8 mm
28/11/2021 08:460.6 °C96 %0.0 °C-O5 km/h0.6 1002 hPa6.8 mm
28/11/2021 08:440.6 °C96 %0.0 °C-ONO26 km/h0.6 1002 hPa6.8 mm
28/11/2021 08:310.7 °C95 %0.0 °C-O10 km/h0.6 1002 hPa6.8 mm
28/11/2021 08:290.8 °C95 %0.0 °C-O26 km/h0.6 1002 hPa6.8 mm
28/11/2021 08:161.1 °C95 %0.6 °C-ONO13 km/h1.1 1001 hPa6.8 mm
28/11/2021 08:141.1 °C95 %0.6 °C-O26 km/h1.1 1001 hPa6.8 mm
28/11/2021 08:011.4 °C95 %0.6 °C5 km/hNO11 km/h0.6 1001 hPa6.6 mm
28/11/2021 07:591.4 °C95 %0.6 °C2 km/hNO26 km/h1.1 1001 hPa6.6 mm
28/11/2021 07:461.6 °C95 %1.1 °C-ONO16 km/h1.7 1001 hPa6.4 mm
28/11/2021 07:441.6 °C95 %1.1 °C-ONO26 km/h1.7 1001 hPa6.4 mm
28/11/2021 07:311.7 °C95 %1.1 °C-NNO21 km/h1.7 1001 hPa6.4 mm
28/11/2021 07:291.7 °C95 %1.1 °C-ONO26 km/h1.7 1001 hPa6.4 mm
28/11/2021 07:161.8 °C95 %1.1 °C-ONO21 km/h1.7 1001 hPa6.4 mm
28/11/2021 07:141.8 °C96 %1.1 °C13 km/hONO26 km/h-1.7 1001 hPa6.2 mm
28/11/2021 07:011.9 °C96 %1.1 °C-NO24 km/h1.7 1001 hPa6.2 mm
28/11/2021 06:591.9 °C96 %1.1 °C-NO26 km/h1.7 1001 hPa6.2 mm
28/11/2021 06:461.9 °C96 %1.1 °C-O23 km/h1.7 1000 hPa6.2 mm
28/11/2021 06:441.9 °C96 %1.1 °C-ONO26 km/h1.7 1000 hPa6.2 mm
28/11/2021 06:311.9 °C96 %1.1 °C-NO19 km/h1.7 1000 hPa6.2 mm
28/11/2021 06:301.9 °C96 %1.1 °C-NO26 km/h1.7 1000 hPa6.2 mm
28/11/2021 06:161.9 °C96 %1.7 °C-NO24 km/h2.2 1000 hPa6.2 mm
28/11/2021 06:151.9 °C96 %1.1 °C-NO26 km/h1.7 1000 hPa6.2 mm
28/11/2021 06:011.9 °C96 %1.7 °C-NO19 km/h2.2 1000 hPa6.2 mm
28/11/2021 06:001.9 °C96 %1.1 °C-NNO26 km/h1.7 1000 hPa6.2 mm
28/11/2021 05:461.9 °C96 %1.1 °C-ONO14 km/h1.7 1000 hPa6.2 mm
28/11/2021 05:451.9 °C96 %1.1 °C11 km/hO26 km/h-1.1 1000 hPa6.2 mm
28/11/2021 05:311.9 °C96 %1.7 °C-ONO16 km/h2.2 1000 hPa6.2 mm
28/11/2021 05:301.9 °C96 %1.7 °C-O26 km/h2.2 1000 hPa6.2 mm
28/11/2021 05:162.0 °C96 %1.7 °C2 km/hO24 km/h1.7 1000 hPa6 mm
28/11/2021 05:152.0 °C96 %1.7 °C-NO26 km/h2.2 1000 hPa6 mm
28/11/2021 05:012.1 °C96 %1.7 °C-ONO16 km/h2.2 1000 hPa6 mm
28/11/2021 05:002.1 °C96 %1.7 °C-NO26 km/h2.2 1000 hPa6 mm
28/11/2021 04:462.1 °C96 %1.7 °C-NO26 km/h2.2 1000 hPa6 mm
28/11/2021 04:452.1 °C96 %1.7 °C2 km/hO26 km/h1.7 1000 hPa6 mm
28/11/2021 04:312.1 °C96 %1.7 °C21 km/hNO26 km/h-2.2 1000 hPa6 mm
28/11/2021 04:302.1 °C96 %1.7 °C-NO26 km/h2.2 1000 hPa6 mm
28/11/2021 04:162.1 °C96 %1.7 °C-ONO19 km/h2.2 1000 hPa6 mm
28/11/2021 04:152.1 °C96 %1.7 °C-ONO26 km/h2.2 1000 hPa6 mm
28/11/2021 04:012.2 °C96 %1.7 °C3 km/hNO18 km/h1.1 1000 hPa5.8 mm
28/11/2021 04:002.2 °C96 %1.7 °C11 km/hNO26 km/h-0.6 1000 hPa5.8 mm
28/11/2021 03:462.2 °C96 %1.7 °C-OSO16 km/h2.2 1000 hPa5.6 mm
28/11/2021 03:452.2 °C96 %1.7 °C-ONO24 km/h2.2 1000 hPa5.6 mm
28/11/2021 03:312.2 °C96 %1.7 °C-O19 km/h2.2 1000 hPa5.6 mm
28/11/2021 03:302.1 °C96 %1.7 °C-ONO24 km/h2.2 1000 hPa5.6 mm
28/11/2021 03:162.0 °C96 %1.7 °C-NO16 km/h2.2 1000 hPa5.2 mm
28/11/2021 03:152.0 °C96 %1.7 °C-ONO24 km/h2.2 1000 hPa5.2 mm
28/11/2021 03:011.9 °C96 %1.7 °C6 km/hNO21 km/h0.6 999 hPa4.8 mm
28/11/2021 03:001.9 °C96 %1.7 °C-ONO24 km/h2.2 999 hPa4.8 mm
28/11/2021 02:461.8 °C95 %1.1 °C-O8 km/h1.7 999 hPa4.4 mm
28/11/2021 02:451.8 °C95 %1.1 °C5 km/hONO24 km/h0.6 999 hPa4.2 mm
28/11/2021 02:321.9 °C96 %1.1 °C-ONO21 km/h1.7 999 hPa4 mm
28/11/2021 02:301.9 °C95 %1.1 °C3 km/hONO24 km/h0.6 999 hPa4 mm
28/11/2021 02:161.9 °C95 %1.1 °C-ONO24 km/h2.2 999 hPa3.6 mm
28/11/2021 02:151.9 °C95 %1.1 °C2 km/hO24 km/h1.7 999 hPa3.6 mm
28/11/2021 02:002.3 °C96 %1.7 °C-ONO23 km/h2.2 999 hPa2.6 mm
28/11/2021 01:462.4 °C96 %1.7 °C-ONO13 km/h2.2 999 hPa1.6 mm
28/11/2021 01:442.4 °C96 %1.7 °C-NO18 km/h2.2 999 hPa1.6 mm
28/11/2021 01:312.2 °C97 %1.7 °C2 km/hNO16 km/h1.7 999 hPa1.2 mm
28/11/2021 01:292.1 °C97 %1.7 °C-NO18 km/h2.2 999 hPa1 mm
28/11/2021 01:161.7 °C97 %1.1 °C-ONO2 km/h1.7 999 hPa0.6 mm
28/11/2021 01:141.7 °C97 %1.1 °C-ONO18 km/h1.7 999 hPa0.6 mm
28/11/2021 01:011.3 °C96 %0.6 °C-O18 km/h1.1 999 hPa0.4 mm
28/11/2021 00:591.3 °C96 %0.6 °C-ONO8 km/h1.1 999 hPa0.2 mm
28/11/2021 00:461.0 °C96 %0.6 °C-ONO8 km/h1.1 999 hPa-
28/11/2021 00:440.9 °C96 %0.6 °C-O3 km/h1.1 999 hPa-
28/11/2021 00:310.7 °C96 %0.0 °C-O2 km/h0.6 999 hPa-
28/11/2021 00:290.6 °C96 %0.0 °C-O2 km/h0.6 999 hPa-
28/11/2021 00:160.5 °C95 %0.0 °C---0.6 999 hPa-
28/11/2021 00:140.5 °C95 %0.0 °C-O2 km/h0.6 999 hPa-
28/11/2021 00:010.7 °C94 %0.0 °C---0.6 999 hPa-


Minima :

Température : 0.5 °C
Humidité : 91 %
Point de rosée : -0.6 °C
Vent moyen : 2 km/h
Windchill : -2.2
Pression atm. : 999 hPa
Maxima :

Température : 2.6 °C
Humidité : 97 %
Point de rosée : 1.7 °C
Vent moyen : 21 km/h
Windchill : 2.8
Pression atm. : 1006 hPa
Rafales max : 27 km/h
Cumul de pluie sur 24H : 8.8 mm

Culan est une commune du département Cher (18).
La station météorologique du réseau de l'association la plus proche de Culan est celle de Beddes



Icône Facebook Association Météo Centre Icône Twitter Association Météo Centre Icône Chaîne Youtube Association Météo Centre Icône contact Association Météo Centre Icône Insta Association Météo Centre